NOAA 16 DEB, 42422

Orbit data source: Space-Track

NOAA 16 DEB, 42422 is space debris in SSO originally from a launch on Thu, 21 Sep 2000 UTC launched from the Air Force Western Test Range (AFWTR). Debris objects in space refer to the collection of defunct objects orbiting the Earth. Examples of debris include non-operational satellites, rocket bodies, and fragments generated from explosions, collisions, or faulty payload assembly.

Loading next visibility...
Identifier
42422, 2000-055TS
Orbit
SSO
Country
Flag of USUS
Related business
Manufacturer
Unknown
Mission
Spacecraft
Bus & Motor
Unknown
Mass
Unknown
Launch date (UTC)
2000-09-21 (25 years ago)
Launch vehicle
Unknown
Launch site
Air Force Western Test Range (AFWTR)
Object type
Payload
Rocket body
Debris
Shape & HBR
Unknown shape, 0.1 m
Radar Cross Section
Small (<0.1 m²)

Expand to show TLE details & history
Last TLE update: 1 day ago

TLE from 1 day ago
0 NOAA 16 DEB
1 42422U 00055TS  25348.71520736  .00004866  00000-0  17954-2 0  9999
2 42422  98.7788  87.6616 0012410 123.6792 236.5577 14.32906790500578
Epoch: 2025-12-14T17:09Z
TLE epoch observation values (Epoch: 2025-12-14T17:09:53.915Z)
Latitude
-0°
Longitude
106.56281°
Altitude
789.867 km
Speed
7.456 km/s
True Right ascension
05h 50m 38s
True Declination
0° 00' 00"
Sunlit
Object was in full shadow at epoch
Visualization orbit readout
Latitude
Unknown
Longitude
Unknown
Altitude
Unknown
Speed
Unknown
Apparent Right ascension
Unknown
Apparent Declination
Unknown
Sunlit
N/A
Visualization observer readout
Local Sidereal Time
22:28:34
Azimuth
Unknown
Elevation
Unknown
Doppler factor
Unknown
Orbital elements
Apogee altitude
788.058 km
Perigee altitude
770.294 km
Semi-major axis
7,157.313 km
Eccentricity
0.00124
Inclination
98.7788°
RAAN
87.6616°
Arg. of periapsis
123.6792°
True anomaly
236.43914°
Mean anomaly
236.5577°
Eccentric anomaly
236.49841°
Mean motion
3.58441 °/min
Orbital period
100.43 mins
BSTAR
0.0017954
Loading maneuver chart data...
Computing Atmospheric mass density...
Loading historical data...
Loading historical data...
Loading historical data...
Loading historical data...
Loading historical data...
Loading historical data...
Loading historical data...

Documentation

Showing up to 5 results
|